Regional Weather Roundup
Issued by NWS Grand Forks, ND

Home | Current Version | Previous Version | Text Only | Print | Product List | Glossary Off
Versions: 1 2 3 4 5 6 7 8 9 10 11 12 13 14 15 16 17 18 19 20 21 22 23 24 25 26 27 28 29 30 31 32 33 34 35 36 37 38 39 40 41 42 43 44 45 46 47 48 49 50

003
ASUS43 KFGF 191831
RWRFGF
PRAIRIE TO PINES  WEATHER ROUNDUP
NATIONAL WEATHER SERVICE EASTERN NORTH DAKOTA/GRAND FORKS ND
1200 PM CST MON FEB 19 2018

 **SATELLITE DATA USED TO AUGMENT SKY COVER AT AUTOMATED STATIONS**
 *****  WEATHER ACROSS EASTERN NORTH DAKOTA  *****

CITY           SKY/WX    TMP DP  RH WIND       PRES   REMARKS
GRAND FORKS    CLOUDY     5  -4  66 N16       30.27S WCI -14
6HR MIN TEMP:  -1; 6HR MAX TEMP:   5;

GRAND FRKS AFB FAIR       2  -8  62 NE15      30.27R WCI -16
GRAND FRKS NWS   N/A      6  -1  73 N14       30.24S WCI -11
DEVILS LAKE    FAIR       1  -8  66 NE8       30.24F WCI -13
6HR MIN TEMP:  -9; 6HR MAX TEMP:   1;

FARGO          FAIR       9   1  70 N20G29    30.17F WCI -10
WAHPETON ARPT  FAIR      14   1  57 N17G26    30.10S WCI  -3
$$

 ***** WEATHER ACROSS CENTRAL AND WESTERN NORTH DAKOTA  *****

CITY           SKY/WX    TMP DP  RH WIND       PRES   REMARKS
BISMARCK       CLOUDY     6  -4  63 NE12      30.20R WCI  -9
6HR MIN TEMP:   1; 6HR MAX TEMP:   6;

MINOT          FAIR       7  -7  52 CALM      30.20F
6HR MIN TEMP: -11; 6HR MAX TEMP:   7;

JAMESTOWN      FAIR       6  -4  63 NE17      30.16F WCI -13
6HR MIN TEMP:   2; 6HR MAX TEMP:   6;

MINOT AFB      CLOUDY     1 -11  56 CALM      30.20F
GARRISON         N/A      3  -5  69 NW3       30.18F
WILLISTON      FAIR      -2  -7  79 CALM      30.21S
6HR MIN TEMP: -18; 6HR MAX TEMP:  -2;

DICKINSON      CLOUDY     4 -11  50 NE8       30.09F WCI  -9
6HR MIN TEMP:  -2; 6HR MAX TEMP:   4;

HETTINGER      LGT SNOW   2  -5  72 NE8       30.11R WCI -12
6HR MIN TEMP:  -1; 6HR MAX TEMP:   2; 6HR PCP: TRACE;

$$

 *****  OTHER AIRPORT OBSERVATIONS IN OUR AREA  *****

CITY           SKY/WX    TMP DP  RH WIND       PRES   REMARKS
WALHALLA       FAIR       1  -8  66 NW6       30.32R WCI -10
GRAFTON AIRPOR NOT AVBL
VALLEY CITY AR NOT AVBL
CANDO          FAIR       5  -8  56 NE5       30.25F WCI  -4
CAVALIER APRT    N/A      1  -8  66 N8        30.31F WCI -12
GWINNER          N/A     10   1  67 N28       30.11S WCI -11
ROLLA          FAIR       0  -9  65 SE6       30.20F WCI -12
 ***** THE ABOVE OBSERVATIONS ARE NON NWS ARE NOT QUALITY
       CONTROLLED AND MAY MIS-REPORT RAIN FOR SNOW...
$$

  *****  WEATHER ACROSS NORTHERN MINNESOTA  *****

CITY           SKY/WX    TMP DP  RH WIND       PRES   REMARKS
FLAG ISLAND    FAIR       1  -9  60 N8        30.24F WCI -12
WARROAD        FAIR       5  -6  61 NE5       30.25F WCI  -4
ROSEAU         FAIR       5  -6  61 N8        30.25S WCI  -8
HALLOCK        FAIR       3  -9  55 N8        30.29F WCI -10
THF RVR FALLS  FAIR       9  -5  53 N13       30.23R WCI  -7
6HR MIN TEMP:  -1; 6HR MAX TEMP:   9;

BAUDETTE       FAIR       3  -5  69 NW7       30.20F WCI  -9
6HR MIN TEMP:  -4; 6HR MAX TEMP:   3;

WASKISH        PTSUNNY   10   0  61 NE10      30.17F WCI  -3
CROOKSTON      FAIR       7  -4  61 NE15      30.23F WCI -11
STEPHEN NDAWN    N/A      0  -8  71 N9          N/A  WCI -16
GREENBUSH NDAW   N/A      1  -9  60 N9          N/A  WCI -14
$$
  *****  WEATHER ACROSS CENTRAL AND WEST MINNESOTA  *****

CITY           SKY/WX    TMP DP  RH WIND       PRES   REMARKS
FOSSTON        FAIR      10   0  61 N10       30.16F WCI  -3
BEMIDJI        FAIR       9  -1  64 NE15      30.11F WCI  -8
6HR MIN TEMP:   4; 6HR MAX TEMP:   9;

PARK RAPIDS    FAIR      10  -1  61 NE15G25   30.05F WCI  -7
6HR MIN TEMP:   5; 6HR MAX TEMP:  10; 6HR PCP: TRACE;

ELBOW LAKE     CLOUDY    12   3  67 E17G23    30.03S WCI  -5
6HR MIN TEMP:  10; 6HR MAX TEMP:  12;

WADENA         FAIR      12   1  62 NE17G25   30.03R WCI  -5
DETROIT LAKES  FAIR      14   1  57 NE13      30.08F WCI   0
MOORHEAD       FAIR      10   1  67 N20       30.15F WCI  -8
FERGUS FALLS   FAIR      16   1  53 NE15G25   30.05F WCI   1
MORRIS MN      CLOUDY    16   9  73 N18       30.00F WCI  -1
STAPLES        CLOUDY    12   3  67 NE12G21   30.02F WCI  -2
$$
  *****  WEATHER ELSEWHERE ACROSS MINNESOTA  *****

CITY           SKY/WX    TMP DP  RH WIND       PRES   REMARKS
DULUTH         LGT SNOW  11   5  77 NE13      30.03S VSB 1   WCI  -4
6HR MIN TEMP:   8; 6HR MAX TEMP:  11; 6HR PCP:  0.07;

INTRNTL FALLS  FAIR       7  -2  66 NE7       30.20F WCI  -5
6HR MIN TEMP:   2; 6HR MAX TEMP:   7;

ELY            FAIR       7   0  72 N7        30.11F WCI  -5
CLOQUET        LGT SNOW  10   5  79 NE10G18   30.04S WCI  -3
WHEATON        FLURRIES  14   3  62 N18G24    30.08S WCI  -3
BRAINERD       LGT SNOW  12   4  70 NE15G24   30.03F WCI  -4
6HR MIN TEMP:   9; 6HR MAX TEMP:  12; 6HR PCP: TRACE;

HIBBING        CLOUDY     8  -1  66 NE10      30.09F WCI  -6
6HR MIN TEMP:   3; 6HR MAX TEMP:   8;

ALEXANDRIA     FLURRIES  14   7  73 NE21      29.98F WCI  -4
6HR MIN TEMP:  10; 6HR MAX TEMP:  13; 6HR PCP: TRACE;

SAINT CLOUD    CLOUDY    16  10  77 N12G21    29.97S WCI   3
6HR MIN TEMP:  12; 6HR MAX TEMP:  16; 6HR PCP:  0.04;

MINNEAPOLIS    LGT SNOW  22  20  92 NE15G25   29.89F FOG     WCI   9
6HR MIN TEMP:  19; 6HR MAX TEMP:  22; 6HR PCP:  0.05;

$$

  *****  WEATHER ACROSS SOUTH DAKOTA  *****

CITY           SKY/WX    TMP DP  RH WIND       PRES   REMARKS
SIOUX FALLS    LGT SNOW  17  12  80 NE15      29.88S WCI   2
6HR MIN TEMP:  14; 6HR MAX TEMP:  17; 6HR PCP: TRACE;

BROOKINGS      FLURRIES  13   8  81 N22G29    29.90F WCI  -6
WATERTOWN      CLOUDY     9   5  84 N24G30    29.95S FOG     WCI -12
6HR MIN TEMP:   7; 6HR MAX TEMP:  10; 6HR PCP: TRACE;

HURON          FLURRIES  11   6  81 N21G28    30.01F WCI  -8
6HR MIN TEMP:   9; 6HR MAX TEMP:  11; 6HR PCP: TRACE;

SISSETON         N/A     12   5  73 N21       30.06F WCI  -7
ABERDEEN       FLURRIES  12   2  64 N22G32    30.09F WCI  -7
6HR MIN TEMP:   7; 6HR MAX TEMP:  12; 6HR PCP: TRACE;

MITCHELL       CLOUDY    15  10  80 N20       29.98F WCI  -2
PIERRE         LGT SNOW   8   3  80 N20       30.06S WCI -11
6HR MIN TEMP:   5; 6HR MAX TEMP:   8; 6HR PCP: TRACE;

MOBRIDGE       SNOW       8   1  73 N15       30.08F VSB 1/2 WCI  -9
RAPID CITY     LGT SNOW   2  -4  76 N16       29.99F WCI -18
6HR MIN TEMP:   0; 6HR MAX TEMP:   2; 6HR PCP:  0.06;

$$

  *****  SOME WEATHER IN NEARBY STATES *****

CITY           SKY/WX    TMP DP  RH WIND       PRES   REMARKS
GLASGOW MT     LGT SNOW  -1  -7  75 NW3       30.17R
6HR MIN TEMP:  -8; 6HR MAX TEMP:  -1; 6HR PCP: TRACE;

GREAT FALLS MT FAIR      -6 -10  83 SW5       30.01S WCI -17
6HR MIN TEMP:  -8; 6HR MAX TEMP:  -5; 6HR PCP:  0.01;

CHEYENNE WY    CLOUDY     4   2  91 E12       29.58F FOG     WCI -12
6HR MIN TEMP:   2; 6HR MAX TEMP:   5; 6HR PCP:  0.01;

SCOTTSBLUFF NE LGT SNOW   7   0  73 N8        29.83F WCI  -6
6HR MIN TEMP:   6; 6HR MAX TEMP:   8; 6HR PCP:  0.01;

OMAHA NE       CLOUDY    24  22  91 NW15      29.82R FOG     WCI  11
6HR MIN TEMP:  24; 6HR MAX TEMP:  28; 6HR PCP: TRACE;

DES MOINES IA  DRZL/FOG  36  34  92 NW12      29.69R VSB 1
6HR MIN TEMP:  36; 6HR MAX TEMP:  47; 6HR PCP:  0.04;

DAVENPORT IA   PTSUNNY   56  52  86 S20       29.69F
6HR MIN TEMP:  42; 6HR MAX TEMP:  54; 6HR PCP:  0.03;

CHICAGO IL     LGT RAIN  45  43  93 SE6       29.77F VSB 1/2
6HR MIN TEMP:  37; 6HR MAX TEMP:  44; 6HR PCP:  0.08;

EAU CLAIRE WI  LGT SNOW  24  21  88 NE10G22   29.86F FOG     WCI  14
6HR MIN TEMP:  24; 6HR MAX TEMP:  29; 6HR PCP:  0.01;

LA CROSSE WI   CLOUDY    36  30  79 N10       29.79F
6HR MIN TEMP:  33; 6HR MAX TEMP:  37; 6HR PCP: TRACE;

$$

  *****  SOME NATIONAL WEATHER *****

CITY           SKY/WX    TMP DP  RH WIND       PRES   REMARKS
LA GUARDIA NY  CLOUDY    48  37  65 S13G22    30.44F
6HR MIN TEMP:  39; 6HR MAX TEMP:  48;

RALEIGH NC     FOG       45  44  97 CALM      30.44F VSB 1/2
6HR MIN TEMP:  41; 6HR MAX TEMP:  45; 6HR PCP:  0.05;

ATLANTA GA     CLOUDY    66  63  90 SE8       30.32F
6HR MIN TEMP:  60; 6HR MAX TEMP:  66; 6HR PCP: TRACE;

NEW ORLEANS LA PTSUNNY   81  67  62 S20       30.15F
6HR MIN TEMP:  63; 6HR MAX TEMP:  82;

OKLAHOMA CITY  LGT RAIN  70  59  68 S21G26    29.75S
6HR MIN TEMP:  63; 6HR MAX TEMP:  70; 6HR PCP: TRACE;

ALBUQUERQUE NM FAIR      54  33  45 SW25G41   29.69F
6HR MIN TEMP:  42; 6HR MAX TEMP:  55;

SALT LAKE CITY LGT SNOW  27  22  81 NW20      29.55R WCI  13
6HR MIN TEMP:  27; 6HR MAX TEMP:  30; 6HR PCP:  0.08;

LOS ANGELES CA FAIR



USA.gov is the U.S. government's official web portal to all federal, state and local government web resources and services.